DW6920 Weather Reports


Display with metric or nautical units.
time (UTC)temp
F
wind
direction
speed
MPH
gust
MPH
rain 1hr
in
rain 24hr
in
rain mn
in
humidity
%
barometer
mb
20260507024522 51 242 0.0 0.0 0.00 0.13 0.13 93 1007.4
20260507023004 51 271 0.0 0.0 0.00 0.13 0.13 93 1007.5
20260507021504 51 240 0.0 0.0 0.00 0.13 0.13 93 1007.3
20260507020045 51 231 0.0 0.0 0.00 0.13 0.13 93 1007.6
20260507014556 52 251 0.0 0.0 0.00 0.13 0.13 93 1007.7
20260507013040 51 229 0.0 0.0 0.00 0.13 0.13 93 1007.7
20260507011536 52 246 0.0 0.0 0.00 0.13 0.13 93 1007.9
20260507010009 52 251 0.0 0.0 0.00 0.13 0.13 93 1008.2
20260507004507 52 243 0.0 0.0 0.00 0.13 0.13 93 1008.1
20260507003106 52 258 0.0 0.0 0.00 0.13 0.13 93 1008.1
20260507001614 52 234 0.0 0.0 0.00 0.13 0.13 93 1007.9
20260507000055 52 252 0.0 0.0 0.00 0.13 0.13 93 1007.7
20260506234553 51 253 0.0 0.0 0.01 0.13 0.13 92 1007.9
20260506233052 51 235 0.0 0.0 0.01 0.13 0.13 92 1007.6
20260506231551 51 205 0.0 0.0 0.01 0.13 0.13 92 1007.6
20260506230050 51 186 0.0 0.0 0.03 0.13 0.13 92 1007.6
20260506224549 51 210 0.0 0.0 0.04 0.12 0.12 92 1007.6
20260506223103 51 171 0.0 0.0 0.06 0.12 0.12 92 1007.5
20260506221529 52 189 0.0 0.0 0.07 0.12 0.12 92 1007.6
20260506220027 52 187 0.0 0.0 0.06 0.10 0.10 92 1007.7
20260506214508 52 184 0.0 0.0 0.04 0.07 0.07 92 1007.8
20260506213010 52 243 0.0 0.0 0.03 0.06 0.06 92 1008.2
20260506211546 51 231 0.0 0.0 0.03 0.05 0.05 91 1008.4
20260506210045 51 244 0.0 0.0 0.02 0.04 0.04 91 1008.5
20260506204525 51 225 0.0 0.0 0.01 0.03 0.03 91 1008.5
20260506203024 52 193 0.0 0.0 0.02 0.03 0.03 91 1008.5
20260506201508 52 170 0.0 0.0 0.01 0.02 0.02 91 1008.7
20260506200004 52 203 0.0 0.0 0.02 0.02 0.02 91 1008.8
20260506194545 52 207 0.0 0.0 0.02 0.02 0.02 90 1008.9
20260506193045 52 172 0.0 0.0 0.01 0.01 0.01 89 1009.1
20260506191524 52 187 0.0 0.0 0.01 0.01 0.01 88 1009.1
20260506190022 53 211 0.0 0.0 0.00 0.00 0.00 88 1009.2
20260506184503 53 197 0.0 0.0 0.00 0.00 0.00 88 1009.4
20260506183003 52 254 0.0 0.0 0.00 0.00 0.00 88 1009.6
20260506181543 52 207 0.0 0.0 0.00 0.00 0.00 88 1009.7
20260506180049 52 164 0.0 11.0 0.00 0.00 0.00 88 1009.6
20260506174526 53 177 0.0 12.0 0.00 0.00 0.00 88 1009.8
20260506173020 53 181 0.0 3.0 0.00 0.00 0.00 87 1010.0
20260506171501 54 185 0.0 0.0 0.00 0.00 0.00 87 1010.3
20260506170100 54 177 0.0 0.0 0.00 0.00 0.00 87 1010.2
20260506164543 54 188 0.0 0.0 0.00 0.00 0.00 88 1010.4
20260506163048 53 189 0.0 0.0 0.00 0.00 0.00 88 1010.8
20260506161536 52 178 0.0 0.0 0.00 0.00 0.00 89 1010.9
20260506160025 52 189 0.0 0.0 0.00 0.00 0.00 89 1011.2
20260506154507 52 192 0.0 0.0 0.00 0.00 0.00 89 1011.2
20260506153009 52 161 0.0 0.0 0.00 0.00 0.00 88 1011.4
20260506151548 52 177 0.0 0.0 0.00 0.00 0.00 88 1011.6
20260506150048 53 182 0.0 0.0 0.00 0.00 0.00 87 1011.5
20260506144530 52 205 0.0 0.0 0.00 0.00 0.00 88 1011.9
20260506143030 52 189 0.0 0.0 0.00 0.00 0.00 88 1011.8
20260506141512 53 186 0.0 0.0 0.00 0.00 0.00 85 1011.8
20260506140012 55 223 0.0 0.0 0.00 0.00 0.00 85 1011.5
20260506134617 56 233 0.0 0.0 0.00 0.00 0.00 85 1011.4
20260506133054 56 227 0.0 0.0 0.00 0.00 0.00 85 1011.9
20260506131600 56 234 0.0 0.0 0.00 0.00 0.00 86 1012.2
20260506130040 56 224 0.0 0.0 0.00 0.00 0.00 87 1012.0
20260506124538 55 232 0.0 0.0 0.00 0.00 0.00 87 1012.1
20260506123044 55 238 0.0 0.0 0.00 0.00 0.00 88 1012.2
20260506121538 54 181 0.0 0.0 0.00 0.00 0.00 88 1012.2
20260506120036 54 222 0.0 0.0 0.00 0.00 0.00 88 1012.1
20260506114543 53 207 0.0 0.0 0.00 0.00 0.00 88 1012.2
20260506113037 54 235 0.0 0.0 0.00 0.00 0.00 89 1012.3
20260506111516 53 217 0.0 9.0 0.00 0.00 0.00 89 1012.3
20260506110017 53 231 0.0 0.0 0.00 0.00 0.00 89 1012.1
20260506104605 54 225 1.0 15.0 0.00 0.00 0.00 89 1012.2
20260506103105 53 210 0.0 0.0 0.00 0.00 0.00 89 1012.0
20260506101541 54 170 0.0 0.0 0.00 0.00 0.00 90 1011.7
20260506100039 54 219 0.0 0.0 0.00 0.00 0.00 89 1011.9
20260506094521 54 176 0.0 0.0 0.00 0.00 0.00 89 1012.0
20260506093020 54 229 0.0 0.0 0.00 0.00 0.00 89 1011.9
20260506091503 54 161 0.0 0.0 0.00 0.00 0.00 89 1012.2
20260506090001 54 222 0.0 0.0 0.00 0.00 0.00 89 1012.1
20260506084550 54 213 0.0 0.0 0.00 0.00 0.00 89 1012.4
20260506083108 54 252 0.0 0.0 0.00 0.00 0.00 89 1012.5
20260506081551 54 241 0.0 0.0 0.00 0.00 0.00 89 1012.5
20260506073046 54 222 0.0 0.0 0.00 0.00 0.00 89 1012.5
20260506071550 53 236 0.0 0.0 0.00 0.00 0.00 89 1012.4
20260506061507 53 230 0.0 0.0 0.00 0.00 0.00 88 1012.4
20260506044518 54 224 0.0 0.0 0.00 0.00 0.00 87 1012.8
20260506043015 53 227 0.0 0.0 0.00 0.00 0.00 87 1012.8
20260506041513 54 245 0.0 0.0 0.00 0.00 0.00 88 1013.0
20260506040016 53 239 0.0 0.0 0.00 0.00 0.00 87 1013.0
20260506034512 54 268 0.0 0.0 0.00 0.00 0.00 87 1012.9
20260506033015 53 247 0.0 0.0 0.00 0.00 0.00 87 1013.1
20260506031508 53 274 0.0 0.0 0.00 0.00 0.00 87 1013.0
20260506030007 53 263 0.0 0.0 0.00 0.00 0.00 87 1012.9